Погода в Херрлюнге

Швеция     58°04′41″N   13°01′33″E
темп.,
°C
ветер,
м/с
пор.,
м/с
влажн.,
%
обл.,
%
осадки,
мм/ч
давл.,
гПа
погр.,
м
10 мая, пн
пн1023:00+13ююз41391100 0.0 1004601
02:00+12юв2899100 1.4 1004299
05:00+12ююв51694100 1.6 1003533
08:00+13ююв51296100 2.7 1002345
11:00+15ююв3892100 0.2 1004440
14:00+18ю2991100 2.4 1004831
17:00+19ююз5107976 1.1 10051061
20:00+15юз31081100 1.2 1007766
11 мая, вт
вт1123:00+12ю2698100 5.8 1009320
02:00+10юз119820 6.7 101114
05:00+8ю1194100 0.0 101215
08:00+9з1293100 0.3 101374
11:00+10ссз2495100 0.4 1013268
14:00+9ссв3697100 1.3 1013306
17:00+9ссв41098100 2.3 1012482
20:00+9с41098100 3.3 1011503
12 мая, ср
ср1223:00+8ссв3899100 0.2 1010327
02:00+9с2599100 0.4 1008211
05:00+10св25100100 0.7 1007146
08:00+13юв2998100 1.0 1005359
11:00+16ююв31093100 1.0 1006664
14:00+17ю31092100 1.7 1006690
17:00+16юз2594100 0.2 1007437
20:00+13юз2698100 0.4 1008342
13 мая, чт
чт1323:00+10юз1499100 0.2 1010225
02:00+10зюз129996 0.2 1010121
05:00+10ссз1198100 0.1 100928
08:00+13ссв239699 0.1 1008247
11:00+19вюв246745 0.1 10071082
14:00+20в3469100 2.7 10061469
17:00+21в35384 0.3 10051832
20:00+17всв49630 0.3 1005514
14 мая, пт
пт1423:00+12в399198 0.3 1006337
02:00+8в27976 0.3 1006168
05:00+6в24955 0.0 100682
08:00+11ссв257085 0.0 1006460
11:00+14ссв346279 0.3 10051383
14:00+15ссв236287 1.0 10051155
17:00+15с346048 0.9 10041280
20:00+10ссв138364 0.3 1004411